Regional Weather Roundup
Issued by NWS

Home | Current Version | Previous Version | Text Only | Print | Product List | Glossary On
Versions: 1 2 3 4 5 6 7 8 9 10 11 12 13 14 15 16 17 18 19 20 21 22 23 24 25 26 27 28 29 30 31 32 33 34 35 36 37 38 39 40 41 42 43 44 45 46 47 48 49 50
000
ASUS43 KFSD 062202
RWRSD

WEATHER ROUNDUP FOR SOUTH DAKOTA
NATIONAL WEATHER SERVICE SIOUX FALLS SD
500 PM CDT FRI MAY 06 2016

NOTE: "FAIR" INDICATES FEW OR NO CLOUDS BELOW 12,000 FEET WITH NO
SIGNIFICANT WEATHER AND/OR OBSTRUCTIONS TO VISIBILITY.


SDZ001>005-009-010-012>017-062300-
NORTHWEST AND NORTH CENTRAL SOUTH DAKOTA

CITY           SKY/WX    TMP DP  RH WIND       PRES   REMARKS
BUFFALO          N/A     73  45  36 N24       29.97R
FAITH            N/A     73  45  36 N31G39    29.94S
MOBRIDGE       SUNNY     81  47  30 N25G32    29.89S
$$

SDZ012>016-024>037-041>051-057-063-072>074-062300-
SOUTHWEST AND SOUTH CENTRAL SOUTH DAKOTA

CITY           SKY/WX    TMP DP  RH WIND       PRES   REMARKS
RAPID CTY ARPT CLOUDY    73  50  44 N21G26    29.97F
PIERRE         CLOUDY    84  51  31 N21       29.82F
CUSTER         CLOUDY    65  43  44 NE17G30   30.06F
ELLSWORTH AFB  CLOUDY    73  51  46 N14       29.98F
PHILIP         CLOUDY    81  54  39 N23G31    29.87S
PINE RIDGE     MOSUNNY   77  52  41 N20G25    29.91S
WINNER         FAIR      88  52  29 W5        29.82F
$$

SDZ004>011-016>023-039-040-062300-
NORTHEAST SOUTH DAKOTA

CITY           SKY/WX    TMP DP  RH WIND       PRES   REMARKS
ABERDEEN       MOSUNNY   80  47  31 N24G38    29.84R
WATERTOWN      CLOUDY    84  45  25 NW12      29.77F
BROOKINGS      SUNNY     88  52  29 NW10      29.78F
SISSETON         N/A     80  43  26 N30G39    29.80R
$$

SDZ017-020-022-023-036>040-048>070-062300-
SOUTHEAST SOUTH DAKOTA

CITY           SKY/WX    TMP DP  RH WIND       PRES   REMARKS
SIOUX FALLS    PTSUNNY   86  50  28 W12G18    29.78F
HURON          SUNNY     87  49  26 W9        29.77F
MITCHELL       PTSUNNY   88  55  32 W13       29.78F
YANKTON        SUNNY     88  48  25 SW16      29.79F
$$

ABBREVIATIONS USED IN REMARKS
   TC - TEMPERATURE IN CELSIUS
  WCI - WIND CHILL INDEX
   HX - HEAT INDEX
  VSB - VISIBILITY




USA.gov is the U.S. government's official web portal to all federal, state and local government web resources and services.